Regional Weather Roundup
Issued by NWS

Home | Current Version | Previous Version | Graphics & Text | Print | Product List | Glossary On
Versions: 1 2 3 4 5 6 7 8 9 10 11 12 13 14 15 16 17 18 19 20 21 22 23 24 25 26 27 28 29 30 31 32 33 34 35 36 37 38 39 40 41 42 43 44 45 46 47 48 49 50
000
ASUS45 KSLC 260710
RWRUT

UTAH REGIONAL WEATHER ROUNDUP
NATIONAL WEATHER SERVICE SALT LAKE CITY UT
1200 AM MST WED NOV 26 2014

UTZ001>011-023>025-260800-

NORTHERN UTAH

CITY           SKY/WX    TMP DP  RH WIND       PRES   REMARKS
HILL AFB       CLOUDY    44  33  64 S6        30.32R
LOGAN          CLOUDY    47  35  63 CALM      30.27R
OGDEN          MOCLDY    44  34  67 SW6       30.31R
PROVO AIRPORT  CLOUDY    36  28  75 CALM      30.35S
SALT LAKE CITY PTCLDY    43  28  55 S8        30.31S
VERNAL         CLEAR     29  22  75 NW6       30.21R WCI  23
WENDOVER       CLEAR     52  30  43 W14       30.33S
HEBER CITY     CLOUDY    32  30  93 CALM      30.33R
WEST JORDAN    CLOUDY    45  28  53 CALM      30.32F

$$

UTZ012>022-026-027-260800-

SOUTHERN/CENTRAL UTAH

CITY           SKY/WX    TMP DP  RH WIND       PRES   REMARKS
BLANDING       PTCLDY    28  10  47 NW7       30.41F WCI  21
BRYCE CANYON   CLEAR     31  18  58 CALM      30.43S
CEDAR CITY     CLEAR     28  20  71 CALM      30.40S
DELTA          CLEAR     30  25  80 S9        30.37R WCI  22
MILFORD        CLEAR     29  17  61 S8        30.38F WCI  21
MOAB/CYNLANDS  CLEAR     28   7  41 CALM      30.30S
PRICE          PTCLDY    36  17  46 E12       30.28S WCI  28
ST GEORGE      MOSUNNY   39   9  28 CALM      30.44S
KANAB          CLEAR     27   7  43 E6        30.47R WCI  20

$$

REGIONAL REPORTS     COLORADO/ARIZONA

CITY           SKY/WX    TMP DP  RH WIND       PRES   REMARKS
CRAIG, CO      CLOUDY    31  25  78 E9        30.20S WCI  23
GRAND JUNCTION MOCLDY    30  20  66 SW5       30.32S WCI  25
RIFLE          MOCLDY    27  24  89 SE5       30.31F WCI  22
MONTROSE       CLOUDY    33  23  66 CALM      30.33S
CORTEZ         CLEAR     25  12  58 E9        30.36S WCI  15
PAGE, AZ       CLEAR     41   8  25 CALM      30.38R
GRAND CANYON   PTCLDY    21   6  52 CALM      30.44F
KINGMAN        CLEAR     37   8  30 E5        30.39S WCI  33
FLAGSTAFF      CLEAR     26  11  52 CALM      30.41F

$$

REGIONAL REPORTS    NEVADA/IDAHO/WYOMING

CITY           SKY/WX    TMP DP  RH WIND       PRES   REMARKS
LAS VEGAS, NV  CLEAR     49  14  24 SW7       30.35F
ELY            CLEAR     28  32 100 S6        30.47R WCI  22
ELKO           CLEAR     31  27  85 CALM      30.42S
POCATELLO, ID  PTCLDY    46  38  73 SW35G44   30.21R
BURLEY         CLOUDY    48  35  60 W15       30.27R
EVANSTON, WY   CLOUDY    38  31  76 W24       30.25R WCI  27
ROCK SPRINGS   CLOUDY    37  31  78 W35G44    30.12S WCI  24

$$


USA.gov is the U.S. government's official web portal to all federal, state and local government web resources and services.